Regional Weather Roundup
Issued by NWS

Home | Current Version | Previous Version | Text Only | Print | Product List | Glossary On
Versions: 1 2 3 4 5 6 7 8 9 10 11 12 13 14 15 16 17 18 19 20 21 22 23 24 25 26 27 28 29 30 31 32 33 34 35 36 37 38 39 40 41 42 43 44 45 46 47 48 49 50
000
ASUS43 KLSX 022159
RWRMO

WEATHER SUMMARY FOR MISSOURI
NATIONAL WEATHER SERVICE SPRINGFIELD MO
500 PM CDT TUE SEP 02 2014

NOTE: "FAIR" INDICATES FEW OR NO CLOUDS BELOW 12,000 FEET WITH NO
       SIGNIFICANT WEATHER AND/OR OBSTRUCTIONS TO VISIBILITY.
       CURRENT SKY AND/OR WEATHER CONDITIONS ARE NOT AVAILABLE FOR
       CHILLICOTHE AND FARMINGTON.

MOZ001>031-035>038-043-044-053-054-022300-
...NORTHERN AND WESTERN MISSOURI...

CITY           SKY/WX    TMP DP  RH WIND       PRES   REMARKS
KANSAS CTY INT PTSUNNY   81  69  67 S9        29.95F
KANSAS C DTWN  MOSUNNY   84  66  54 W8        29.94F
LEE`S SUMMIT   MOSUNNY   80  71  74 VRB6      29.96F
ST JOSEPH      SUNNY     83  64  52 CALM      29.94F
KIRKSVILLE     MOSUNNY   82  63  52 W8        29.95F

$$
MOZ066>068-077>081-088>096-101>105-022300-
...SOUTHWEST MISSOURI...

CITY           SKY/WX    TMP DP  RH WIND       PRES   REMARKS
SPRINGFIELD    MOSUNNY   82  64  54 NW8       29.97F
JOPLIN         MOSUNNY   80  66  62 NW8       29.96F

$$
MOZ032>034-039>042-045>050-055>058-069>072-022300-
...CENTRAL MISSOURI...

CITY           SKY/WX    TMP DP  RH WIND       PRES   REMARKS
COLUMBIA       MOSUNNY   81  69  67 NW9       29.96F
JEFFERSON CITY PTSUNNY   81  69  67 NW6       29.94F
ROLLA          PTSUNNY   77  66  68 NW7       29.96F
SEDALIA        MOSUNNY   80  70  71 W7        29.97F
OSAGE BEACH    PTSUNNY   81  66  61 NW5       29.96F

$$
MOZ051-052-059>065-022300-
...EAST CENTRAL MISSOURI...

CITY           SKY/WX    TMP DP  RH WIND       PRES   REMARKS
ST LOUIS INTL  PTSUNNY   83  66  56 NW6       29.95F
SPIRIT OF STL  CLOUDY    81  68  64 NW3       29.94F
ST CHARLES     PTSUNNY   80  67  64 W3        29.94S

$$
MOZ072>076-082>087-097>100-106>115-022300-
...SOUTH CENTRAL AND SOUTHEAST MISSOURI...

CITY           SKY/WX    TMP DP  RH WIND       PRES   REMARKS
CAPE GIRARDEAU PTSUNNY   82  68  62 N5        29.93S
FARMINGTON     CLOUDY    77  68  73 NW6       29.99R
POPLAR BLUFF   CLOUDY    83  65  54 VRB6      29.92F
WEST PLAINS    PTSUNNY   78  65  63 N7        29.98S

$$


USA.gov is the U.S. government's official web portal to all federal, state and local government web resources and services.